Location: Blanot
(47.1713°N, 4.2340°E)
Time: 00:10:40
(UTC+00:00)

Helios 1A - Pass Details

Date: 14 July 2020
Orbit: 587 x 600 km, 98.2° (Epoch: 01 August)

Event Time Altitude Azimuth Distance (km) Brightness Sun altitude
Exits shadow 00:38:49 22° 262° (W) 1,296 4.5 -20.3°
Maximum altitude 00:39:01 22° 266° (W) 1,293 4.5 -20.3°
Drops below altitude 10° 00:42:19 10° 319° (NW) 1,926 6.0 -20.2°
Sets 00:44:54 0° 334° (NNW) 2,834 7.2 -20.1°
